• In Netherlands
  • List of Countries
  • For 7 days
  • Water Temperature
  • Satellite Maps
  • Weather Map
  • Weather Widgets
  • user-avatar
    Login

    Hourly Weather Sharan

    Today, 27 April, Thursday

    Time Temperature Precipitation Wind Pressure Humidity
    00:00 +18°C° 0 mm 3 mps 588 mmHg 28%
    01:00 +17°C° 0 mm 3 mps 588 mmHg 31%
    02:00 +16°C° 0 mm 3 mps 588 mmHg 34%
    03:00 +14°C° 0 mm 3 mps 587 mmHg 35%
    04:00 +14°C° 0 mm 3 mps 587 mmHg 36%
    05:00 +13°C° 0 mm 3 mps 587 mmHg 37%
    06:00 +14°C° 0 mm 3 mps 587 mmHg 35%
    07:00 +14°C° 0 mm 3 mps 588 mmHg 33%
    08:00 +16°C° 0 mm 3 mps 588 mmHg 31%
    09:00 +17°C° 0 mm 3 mps 589 mmHg 28%
    10:00 +18°C° 0 mm 2 mps 589 mmHg 25%
    11:00 +20°C° 0 mm 2 mps 590 mmHg 22%
    12:00 +20°C° 0 mm 2 mps 590 mmHg 20%
    13:00 +21°C° 0 mm 2 mps 590 mmHg 18%
    14:00 +23°C° 0 mm 2 mps 590 mmHg 16%
    15:00 +24°C° 0 mm 3 mps 589 mmHg 16%
    16:00 +24°C° 0 mm 3 mps 589 mmHg 15%
    17:00 +24°C° 0 mm 3 mps 589 mmHg 15%
    18:00 +23°C° 0 mm 4 mps 589 mmHg 16%
    19:00 +22°C° 0 mm 4 mps 589 mmHg 18%
    20:00 +21°C° 0 mm 4 mps 589 mmHg 19%
    21:00 +21°C° 0.1 mm 5 mps 589 mmHg 22%
    22:00 +20°C° 0.1 mm 5 mps 589 mmHg 25%
    23:00 +19°C° 0.1 mm 6 mps 589 mmHg 28%

    Tomorrow, 28 April, Friday

    Time Temperature Precipitation Wind Pressure Humidity
    00:00 +17°C° 0 mm 6 mps 589 mmHg 30%
    01:00 +16°C° 0 mm 5 mps 588 mmHg 31%
    02:00 +16°C° 0 mm 5 mps 588 mmHg 33%
    03:00 +15°C° 0 mm 4 mps 588 mmHg 35%
    04:00 +14°C° 0 mm 3 mps 587 mmHg 37%
    05:00 +15°C° 0 mm 2 mps 587 mmHg 39%
    06:00 +15°C° 0 mm 2 mps 587 mmHg 37%
    07:00 +15°C° 0 mm 2 mps 588 mmHg 35%
    08:00 +16°C° 0 mm 2 mps 588 mmHg 33%
    09:00 +17°C° 0 mm 2 mps 588 mmHg 30%
    10:00 +19°C° 0 mm 1 mps 589 mmHg 28%
    11:00 +20°C° 0 mm 1 mps 589 mmHg 25%
    12:00 +20°C° 0 mm 2 mps 589 mmHg 23%
    13:00 +21°C° 0 mm 2 mps 589 mmHg 21%
    14:00 +23°C° 0 mm 2 mps 589 mmHg 19%
    15:00 +22°C° 0 mm 3 mps 588 mmHg 19%
    16:00 +22°C° 0 mm 3 mps 588 mmHg 18%
    17:00 +23°C° 0 mm 4 mps 588 mmHg 18%
    18:00 +22°C° 0.1 mm 5 mps 588 mmHg 21%
    19:00 +20°C° 0.1 mm 6 mps 588 mmHg 24%
    20:00 +18°C° 0.1 mm 7 mps 588 mmHg 28%
    21:00 +19°C° 0.2 mm 6 mps 588 mmHg 30%
    22:00 +17°C° 0.2 mm 5 mps 588 mmHg 33%
    23:00 +17°C° 0.2 mm 4 mps 588 mmHg 35%

    Day after tomorrow, 29 April, Saturday

    Time Temperature Precipitation Wind Pressure Humidity
    00:00 +15°C° 0.1 mm 4 mps 588 mmHg 37%
    01:00 +15°C° 0.1 mm 4 mps 587 mmHg 38%
    02:00 +14°C° 0.1 mm 4 mps 587 mmHg 39%
    03:00 +13°C° 0 mm 4 mps 587 mmHg 40%
    04:00 +13°C° 0 mm 4 mps 586 mmHg 40%
    05:00 +12°C° 0 mm 4 mps 586 mmHg 41%
    06:00 +13°C° 0 mm 4 mps 587 mmHg 38%
    07:00 +13°C° 0 mm 4 mps 587 mmHg 36%
    08:00 +13°C° 0 mm 4 mps 588 mmHg 34%
    09:00 +16°C° 0 mm 3 mps 588 mmHg 30%
    10:00 +17°C° 0 mm 3 mps 588 mmHg 27%
    11:00 +18°C° 0 mm 2 mps 589 mmHg 24%
    12:00 +19°C° 0 mm 2 mps 589 mmHg 22%
    13:00 +20°C° 0 mm 3 mps 589 mmHg 19%
    14:00 +20°C° 0 mm 3 mps 588 mmHg 17%
    15:00 +21°C° 0 mm 2 mps 588 mmHg 17%
    16:00 +21°C° 0 mm 2 mps 588 mmHg 16%
    17:00 +21°C° 0 mm 2 mps 588 mmHg 16%
    18:00 +20°C° 0.1 mm 2 mps 588 mmHg 17%
    19:00 +20°C° 0.1 mm 3 mps 588 mmHg 18%
    20:00 +19°C° 0.1 mm 3 mps 588 mmHg 19%
    21:00 +18°C° 0.1 mm 3 mps 588 mmHg 18%
    22:00 +18°C° 0.1 mm 3 mps 589 mmHg 18%
    23:00 +17°C° 0.1 mm 3 mps 589 mmHg 17%

    30 April, Sunday

    Time Temperature Precipitation Wind Pressure Humidity
    00:00 +16°C° 0 mm 3 mps 588 mmHg 17%
    01:00 +14°C° 0 mm 3 mps 588 mmHg 16%
    02:00 +13°C° 0 mm 3 mps 587 mmHg 15%
    03:00 +13°C° 0 mm 3 mps 587 mmHg 15%
    04:00 +12°C° 0 mm 3 mps 587 mmHg 16%
    05:00 +11°C° 0 mm 3 mps 586 mmHg 16%
    06:00 +12°C° 0 mm 3 mps 587 mmHg 15%
    07:00 +12°C° 0 mm 3 mps 588 mmHg 14%
    08:00 +13°C° 0 mm 3 mps 588 mmHg 12%
    09:00 +16°C° 0 mm 3 mps 589 mmHg 10%
    10:00 +17°C° 0 mm 3 mps 589 mmHg 9%
    11:00 +18°C° 0 mm 2 mps 590 mmHg 7%
    12:00 +19°C° 0 mm 2 mps 590 mmHg 6%
    13:00 +20°C° 0 mm 2 mps 590 mmHg 5%
    14:00 +21°C° 0 mm 2 mps 589 mmHg 5%
    15:00 +21°C° 0 mm 2 mps 589 mmHg 5%
    16:00 +23°C° 0 mm 2 mps 589 mmHg 5%
    17:00 +23°C° 0 mm 2 mps 589 mmHg 5%
    18:00 +21°C° 0 mm 2 mps 589 mmHg 6%
    19:00 +21°C° 0 mm 2 mps 589 mmHg 7%
    20:00 +20°C° 0 mm 2 mps 589 mmHg 9%
    21:00 +19°C° 0 mm 2 mps 589 mmHg 10%
    22:00 +19°C° 0 mm 2 mps 589 mmHg 12%
    23:00 +18°C° 0 mm 2 mps 589 mmHg 14%

    1 May, Monday

    Time Temperature Precipitation Wind Pressure Humidity
    00:00 +17°C° 0 mm 2 mps 588 mmHg 15%
    01:00 +16°C° 0 mm 2 mps 588 mmHg 16%
    02:00 +15°C° 0 mm 2 mps 587 mmHg 17%
    03:00 +15°C° 0 mm 2 mps 587 mmHg 17%
    04:00 +14°C° 0 mm 1 mps 587 mmHg 18%
    05:00 +14°C° 0 mm 1 mps 587 mmHg 18%
    06:00 +14°C° 0 mm 1 mps 587 mmHg 16%
    07:00 +15°C° 0 mm 1 mps 588 mmHg 14%
    08:00 +16°C° 0 mm 1 mps 589 mmHg 12%
    09:00 +19°C° 0 mm 1 mps 589 mmHg 11%
    10:00 +19°C° 0 mm 2 mps 590 mmHg 10%
    11:00 +20°C° 0 mm 2 mps 590 mmHg 8%
    12:00 +21°C° 0 mm 3 mps 590 mmHg 8%
    13:00 +22°C° 0 mm 3 mps 590 mmHg 7%
    14:00 +23°C° 0 mm 4 mps 590 mmHg 7%
    15:00 +23°C° 0 mm 4 mps 590 mmHg 7%
    16:00 +25°C° 0 mm 4 mps 590 mmHg 7%
    17:00 +25°C° 0 mm 4 mps 589 mmHg 7%
    18:00 +23°C° 0 mm 5 mps 589 mmHg 8%
    19:00 +23°C° 0 mm 5 mps 589 mmHg 9%
    20:00 +22°C° 0 mm 5 mps 589 mmHg 10%
    21:00 +21°C° 0 mm 5 mps 589 mmHg 11%
    22:00 +20°C° 0 mm 5 mps 589 mmHg 12%
    23:00 +20°C° 0 mm 4 mps 589 mmHg 13%

    2 May, Tuesday

    Time Temperature Precipitation Wind Pressure Humidity
    00:00 +19°C° 0 mm 4 mps 589 mmHg 14%
    01:00 +19°C° 0 mm 4 mps 589 mmHg 15%
    02:00 +18°C° 0 mm 4 mps 588 mmHg 16%
    03:00 +17°C° 0 mm 4 mps 588 mmHg 17%
    04:00 +17°C° 0 mm 3 mps 588 mmHg 18%
    05:00 +16°C° 0 mm 3 mps 588 mmHg 19%
    06:00 +16°C° 0 mm 3 mps 588 mmHg 18%
    07:00 +17°C° 0 mm 2 mps 588 mmHg 17%
    08:00 +17°C° 0 mm 2 mps 589 mmHg 17%
    09:00 +19°C° 0 mm 1 mps 589 mmHg 16%
    10:00 +20°C° 0 mm 1 mps 589 mmHg 16%
    11:00 +21°C° 0 mm 1 mps 590 mmHg 15%
    12:00 +22°C° 0 mm 1 mps 589 mmHg 15%
    13:00 +23°C° 0 mm 2 mps 589 mmHg 14%
    14:00 +24°C° 0 mm 2 mps 589 mmHg 14%
    15:00 +24°C° 0 mm 2 mps 589 mmHg 14%
    16:00 +24°C° 0 mm 2 mps 588 mmHg 13%
    17:00 +24°C° 0 mm 2 mps 588 mmHg 13%
    18:00 +24°C° 0 mm 3 mps 588 mmHg 13%
    19:00 +22°C° 0 mm 4 mps 589 mmHg 14%
    20:00 +22°C° 0 mm 4 mps 589 mmHg 15%
    21:00 +21°C° 0 mm 4 mps 589 mmHg 16%
    22:00 +20°C° 0 mm 4 mps 589 mmHg 17%
    23:00 +20°C° 0 mm 4 mps 589 mmHg 17%
    Show more